Regional Weather Roundup
Issued by NWS

Home | Current Version | Previous Version | Text Only | Print | Product List | Glossary On
Versions: 1 2 3 4 5 6 7 8 9 10 11 12 13 14 15 16 17 18 19 20 21 22 23 24 25 26 27 28 29 30 31 32 33 34 35 36 37 38 39 40 41 42 43 44 45 46 47 48 49 50
000
ASUS43 KTOP 280408
RWRKS

WEATHER ROUNDUP FOR KANSAS
NATIONAL WEATHER SERVICE GOODLAND KS
1100 PM CDT SUN MAY 27 2018

NOTE:  "FAIR" INDICATES FEW OR NO CLOUDS BELOW 12,000 FEET WITH NO
SIGNIFICANT WEATHER AND/OR OBSTRUCTIONS TO VISIBILITY.

KSZ001>006-013>018-027>032-041>047-280500-
NORTHWEST KANSAS

CITY           SKY/WX    TMP DP  RH WIND       PRES   REMARKS
GOODLAND       CLOUDY    76  62  62 SE18G26   29.84R
HAYS           PTCLDY    76  60  57 SE14      29.88R
HILL CITY      MOCLDY    79  58  48 SE12G21   29.87R
RUSSELL        CLOUDY    76  62  62 SE14      29.88R
$$

KSZ061>065-074>080-084>089-280500-
SOUTHWEST KANSAS

CITY           SKY/WX    TMP DP  RH WIND       PRES   REMARKS
DODGE CITY     MOCLDY    78  61  55 SE18      29.87R
ELKHART        CLEAR     78  66  66 SE18G25   29.86R
GARDEN CITY    CLOUDY    81  57  43 SE15      29.84R
GREAT BEND     CLEAR     77  61  57 SE16      29.90R
LIBERAL        CLEAR     80  66  62 SE16G23   29.85R
PRATT          PTCLDY    77  60  55 SE10      29.92R
$$

KSZ066>073-081>083-090>101-280500-
SOUTHEAST KANSAS

CITY           SKY/WX    TMP DP  RH WIND       PRES   REMARKS
CHANUTE        CLOUDY    73  71  93 S3        29.92R
COFFEYVILLE    CLOUDY    75  70  84 CALM      29.90R
HUTCHINSON     CLEAR     77  66  68 SE10      29.90R
MEDICINE LODGE   N/A     77  63  61 E5        29.90R
NEWTON         PTCLDY    74  67  78 SE9       29.92R
PARSONS        CLOUDY    72  71  97 CALM      29.92R
WICHITA INTL   PTCLDY    79  68  69 SE10      29.90R
WICHITA JABRA  CLOUDY    75  68  78 SE7       29.91R
WICHITA MCCONL PTCLDY    77  66  69 S9        29.91R
WINFIELD       MOCLDY    75  68  78 SE7       29.91R
$$

KSZ007>012-019>026-033>040-048>060-102>105-280500-
NORTHEAST KANSAS

CITY           SKY/WX    TMP DP  RH WIND       PRES   REMARKS
CONCORDIA      CLOUDY    80  64  58 S13       29.91R
EMPORIA        PTCLDY    74  68  81 S7        29.91S
LAWRENCE       PTCLDY    74  72  93 CALM      29.90R
MANHATTAN      MOCLDY    76  67  73 SW5       29.90R
OLATHE IND     PTCLDY    74  71  91 S6        29.92R
OLATHE EXE     PTCLDY    78  72  81 CALM      29.92R
SALINA         CLOUDY    80  66  62 SE9       29.90R
TOPEKA BILLARD PTCLDY    77  71  82 CALM      29.91R
TOPEKA FORBES  PTCLDY    77  70  79 S5        29.92R
$$



USA.gov is the U.S. government's official web portal to all federal, state and local government web resources and services.